sat.trackr.live / text

‹ back to catalog

ONEWEB-0153

NORAD 48044 · 2021-025C

PAYLOAD ACTIVE UNKNOWN

§ Identity

Operator
Country
UK
Launch date
2021-03-25
Launch site
VOSTO
Launch vehicle
Mass (kg)
RCS (m²)

Purposes: comms

External: N2YO · Heavens-Above · Gunter

§ Orbital elements

Epoch: 2026-09-20T02:01:44.254272Z

Period
109.63 min
Inclination
87.8922°
Eccentricity
0.0001799
Mean motion
13.13470216 rev/d
Perigee alt
1,208.4 km
Apogee alt
1,211.1 km
Semi-major
7,587.9 km
B*
5.1524e-4
RAAN
301.3426°
Arg perigee
97.0658°
Mean anomaly
263.0676°
Rev number
26,600

§ Raw data

ONEWEB-01531 48044U 21025C   26263.08453998  .00000201  00000+0  51524-3 0  99972 48044  87.8922 301.3426 0001799  97.0658 263.0676 13.13470216266000

JSON: /api/v1/satellites/48044 · /tle

For live sub-satellite position, see the globe view (requires WebGL).

§ Visibility from observer

Set your observer location to see the next 7 days of passes ≥ 10°. The values pass through the URL so the page stays shareable.

No JS? Fill the form by hand. The geolocation button needs JavaScript.